Location: Hilton Head Island
(32.2163°N, 80.7526°W)
Time: 17:52:17
(UTC-04:00)

Altair - Pass Details

Date: 20 February 2026
Orbit: 1502 x 1682 km, 47.2° (Epoch: 10 March)

Event Time Altitude Azimuth Distance (km) Brightness Sun altitude
Exits shadow 03:13:04 39° 67° (ENE) 2,140 8.4 -48.2°
Drops below altitude 10° 03:18:20 10° 56° (NE) 3,692 10.0 -47.2°
Sets 03:21:26 0° 54° (NE) 4,695 10.7 -46.5°
